Weather History for El Centro, CA

Change the Weather History Date:

Wednesday, February 26, 2014

  Actual Average Record
Temperature  
Mean Temperature 64 °F -  
Max Temperature 79 °F 69 °F 84 °F (2002)
Min Temperature 50 °F 48 °F 37 °F (2013)
Growing Degree Days 14 (Base 50)    
Moisture  
Dew Point 44 °F    
Average Humidity 50    
Maximum Humidity 83    
Minimum Humidity 26    
Precipitation  
Precipitation 0.00 in - - ()
Sea Level Pressure  
Sea Level Pressure 29.98 in    
Wind  
Wind Speed 9 mph (WSW)    
Max Wind Speed 25 mph    
Max Gust Speed 29 mph    
Visibility 10 miles    
Events      
Averages and records for this station are not official NWS values.
T = Trace of Precipitation, MM = Missing Value Source: NWS Daily Summary

Daily Weather History Graph

Daily Weather History Graph

Search for Another Location

Airport:

Trip Planner

Search our weather history database for the weather conditions in past years. The results will help you decide how hot, cold, wet, or windy it might be!

Date:

Astronomy

Feb. 26, 2014 Rise Set
Actual Time 6:13 AM PST 5:37 PM PST
Civil Twilight 5:49 AM PST 6:02 PM PST
Nautical Twilight 5:20 AM PST 6:31 PM PST
Astronomical Twilight 4:51 AM PST 6:59 PM PST
Moon 3:56 AM PST (2/26) 3:02 PM PST (2/26)
Length of Visible Light 12h 13m
Length of Day
11h 23m
Waning Crescent, 9% of the Moon is Illuminated
Feb 26
Waning Crescent
Mar 1
New
Mar 8
First Quarter
Mar 16
Full
Mar 23
Last Quarter

Hourly Weather History & Observations

Time (PST) Temp. Dew Point Humidity Pressure Visibility Wind Dir Wind Speed Gust Speed Precip Events Conditions
12:56 AM 55.9 °F 42.1 °F 60% 29.98 in 10.0 mi Calm Calm - N/A   Clear
1:56 AM 52.0 °F 46.0 °F 80% 29.97 in 10.0 mi NNE 8.1 mph - N/A   Clear
2:56 AM 50.0 °F 45.0 °F 83% 29.96 in 10.0 mi NE 6.9 mph - N/A   Clear
3:56 AM 55.9 °F 48.0 °F 75% 29.97 in 10.0 mi ESE 4.6 mph - N/A   Clear
4:56 AM 51.1 °F 45.0 °F 80% 29.98 in 10.0 mi Calm Calm - N/A   Clear
5:56 AM 50.0 °F 44.1 °F 80% 30.00 in 9.0 mi Variable 3.5 mph - N/A   Scattered Clouds
6:56 AM 52.0 °F 46.0 °F 80% 30.01 in 6.0 mi Calm Calm - N/A   Haze
7:56 AM 60.1 °F 51.1 °F 72% 30.03 in 7.0 mi ESE 6.9 mph - N/A   Partly Cloudy
8:56 AM 70.0 °F 43.0 °F 38% 30.04 in 10.0 mi West 18.4 mph - N/A   Partly Cloudy
9:56 AM 73.0 °F 43.0 °F 34% 30.04 in 10.0 mi West 17.3 mph - N/A   Mostly Cloudy
10:56 AM 75.0 °F 39.9 °F 28% 30.02 in 10.0 mi WNW 10.4 mph - N/A   Mostly Cloudy
11:56 AM 75.9 °F 39.9 °F 27% 29.99 in 10.0 mi NW 8.1 mph - N/A   Mostly Cloudy
12:56 PM 75.9 °F 44.1 °F 32% 29.95 in 10.0 mi SSE 6.9 mph - N/A   Mostly Cloudy
1:56 PM 77.0 °F 41.0 °F 28% 29.94 in 10.0 mi Variable 3.5 mph - N/A   Scattered Clouds
2:56 PM 79.0 °F 41.0 °F 26% 29.92 in 10.0 mi WSW 10.4 mph 19.6 mph N/A   Scattered Clouds
3:56 PM 78.1 °F 43.0 °F 29% 29.92 in 10.0 mi WSW 23.0 mph 28.8 mph N/A   Partly Cloudy
4:56 PM 73.9 °F 43.0 °F 33% 29.94 in 10.0 mi WSW 25.3 mph - N/A   Partly Cloudy
5:56 PM 70.0 °F 44.1 °F 39% 29.96 in 10.0 mi West 21.9 mph - N/A   Partly Cloudy
6:56 PM 68.0 °F 44.1 °F 42% 29.97 in 10.0 mi WSW 19.6 mph - N/A   Partly Cloudy
7:56 PM 66.9 °F 45.0 °F 45% 29.99 in 10.0 mi WSW 17.3 mph - N/A   Partly Cloudy
8:56 PM 66.9 °F 46.0 °F 47% 30.00 in 10.0 mi West 20.7 mph - N/A   Partly Cloudy
9:56 PM 66.0 °F 46.0 °F 48% 30.00 in 10.0 mi West 16.1 mph - N/A   Partly Cloudy
10:56 PM 66.9 °F 46.9 °F 49% 29.99 in 10.0 mi West 23.0 mph - N/A   Partly Cloudy
11:56 PM 66.0 °F 46.9 °F 50% 29.99 in 10.0 mi WSW 23.0 mph - N/A   Clear